Regional Weather Roundup
Issued by NWS Pendleton, OR

Home | Current Version | Previous Version | Text Only | Print | Product List | Glossary On
Versions: 1 2 3 4 5 6 7 8 9 10 11 12 13 14 15 16 17 18 19 20 21 22 23 24 25 26 27 28 29 30 31 32 33 34 35 36 37 38 39 40 41 42 43 44 45 46 47 48 49 50
000
ASUS46 KPDT 011325
RWRPDT
PENDLETON REGIONAL WEATHER ROUNDUP
NATIONAL WEATHER SERVICE PENDLETON OREGON
600 AM PDT SAT NOV 1 2014

NOTE: FAIR INDICATES FEW OR NO CLOUDS BELOW 12,000 FEET WITH NO
SIGNIFICANT WEATHER AND/OR OBSTRUCTIONS TO VISIBILITY.

# INDICATES UNOFFICIAL STATION AND DATA

WAZ520-011410-
EAST SLOPES OF WASHINGTON CASCADES

CITY            SKY/WX      TMP DP  RH  WIND    PRES   REMARKS
#BULLFROG 2SW   N/A         62  39  43  CALM    30.06R
#BUMPING DAM    N/A         35  N/A N/A CALM    N/A
#CLE ELUM 2NW   N/A         34  34  100 W1      N/A
#CLE ELUM LAKE  N/A         N/A N/A N/A SW5     29.74S
#CLIFFDEL 2NW   N/A         36  35  96  CALM    N/A
#MANASTASH CYN  N/A         37  34  89  CALM    29.73F
#RONALD 2NW     N/A         37  36  96  CALM    29.65S
#TEANAWAY 4NE   N/A         35  35  100 NW3     N/A
#TROUT LAKE HS  N/A         34  34  100 CALM    N/A
$$

WAZ521-011410-
SIMCOE HIGHLANDS

CITY            SKY/WX      TMP DP  RH  WIND    PRES   REMARKS
#CENTERVILLE 4W N/A         41  38  89  N1      29.51R
#GOLDENDALE     N/A         37  37  100 CALM    N/A
#GOLDENDALE 5WNWN/A         35  34  96  CALM    29.75R
#GOODNOE HILLS  N/A         43  43  100 NW6     29.69R
$$

WAZ026-011410-
KITTITAS VALLEY

CITY            SKY/WX      TMP DP  RH  WIND    PRES   REMARKS
ELLENSBURG AP   CLOUDY      46  36  68  NW12    29.74F WCI 40
#ELLENSBURG     N/A         47  42  83  NW3     N/A
$$

WAZ027-011410-
YAKIMA VALLEY

CITY            SKY/WX      TMP DP  RH  WIND    PRES   REMARKS
SUNNYSIDE AP    PTCLDY      41  41  100 CALM    29.76R
YAKIMA AIRPORT  CLOUDY      40  37  89  W5      29.76R
YAKIMA-VAGABOND MOCLDY      43  38  82  SE6     29.76S
#DONALD 2NE     N/A         45  37  73  CALM    30.08R
#GRANDVIEW      N/A         43  41  93  CALM    29.77R
#MOXEE 2E       N/A         43  39  86  CALM    29.75R
#OUTLOOK DOT    N/A         N/A N/A N/A W2      N/A
#SELAH 8E       N/A         42  37  82  N2      N/A
#WAPATO 4NE     N/A         45  37  73  CALM    30.08R
#W YAKIMA       N/A         43  39  86  CALM    29.76R
$$

WAZ028-011410-
LOWER COLUMBIA BASIN...WASHINGTON

CITY            SKY/WX      TMP DP  RH  WIND    PRES   REMARKS
PASCO           CLOUDY      48  46  93  CALM    29.75S
PROSSER AWOS    N/A         45  43  93  W3      29.79R
RICHLAND AWOS   CLOUDY      46  45  96  W6      29.76R
#KENNEWICK      N/A         62  39  43  CALM    30.06R
$$

WAZ029-011410-
FOOTHILLS OF THE BLUES...WASHINGTON

CITY            SKY/WX      TMP DP  RH  WIND    PRES   REMARKS
WALLA WALLA AP  LGT RAIN    48  46  93  CALM    29.73F FOG
#SUDBURY        N/A         50  N/A N/A CALM    N/A
#WHITMAN COLLEGEN/A         48  46  93  CALM    29.78S
#WAITSBURG 8N   N/A         45  40  82  CALM    29.71S
$$

WAZ030-011410-
BLUE MOUNTAINS...WASHINGTON

CITY            SKY/WX      TMP DP  RH  WIND    PRES   REMARKS
$$

ORZ009-041-WAZ024-011410-
COLUMBIA RIVER GORGE

CITY            SKY/WX      TMP DP  RH  WIND    PRES   REMARKS
HOOD RIVER AP   PTCLDY      36  36  100 CALM    29.79S
THE DALLES AP   MOCLDY      45  39  79  CALM    29.77S
#ARLINGTON AIRPON/A         46  43  89  W6      29.99S
#ARLINGTON HS   N/A         49  43  80  CALM    29.68R
#CELILO DOT     N/A         47  39  74  CALM    N/A
#MARYHILL 2W    N/A         45  45  100 E1      N/A
#MOSIER 1S      N/A         42  40  93  SW6     29.82R
#MURDOCK        N/A         48  45  89  NW8     29.79R
#RUFUS DOT      N/A         N/A N/A N/A N14     N/A

$$

ORZ510-011410-
NORTH CENTRAL OREGON

CITY            SKY/WX      TMP DP  RH  WIND    PRES   REMARKS
#COW CYN RST AREN/A         39  37  92  SW2     N/A
#GRASS VALLEY   N/A         40  39  96  CALM    N/A
#KENT DOT       N/A         39  34  82  W3      N/A
#SHANIKO 5WSW   N/A         38  32  79  NW1     N/A
#WASCO DOT      N/A         42  40  93  NW2     N/A
$$

ORZ511-011410-
CENTRAL OREGON

CITY            SKY/WX      TMP DP  RH  WIND    PRES   REMARKS
BEND AIRPORT    MOCLDY      36  34  92  W5      29.77R
MADRAS AIRPORT  CLOUDY      37  37  100 CALM    29.77S
PRINEVILLE AP   CLOUDY      39  36  89  W7      29.75R
REDMOND AIRPORT CLOUDY      37  36  96  CALM    29.75R
#BEND 6E        N/A         36  32  85  CALM    29.75R
#BEND 1SW       N/A         35  33  92  CALM    N/A
#LAKE BILLY CHINN/A         35  35  100 CALM    29.87R
#POWELL BUTTE 3EN/A         39  37  92  W3      N/A
#POWELL BUTTE   N/A         39  35  85  SW5     29.40R
#PRINEVILLE 3N  N/A         40  36  85  SW5     29.70R


ORZ509-011410-
EAST SLOPES OF OREGON CASCADES

CITY            SKY/WX      TMP DP  RH  WIND    PRES   REMARKS
#BLUE BOX PASS  N/A         33  -15 11  CALM    N/A
#LA PINE DOT    N/A         34  33  96  W3      N/A
#LAVA BUTTE DOT N/A         33  31  92  CALM    N/A
#MT BACHELOR-MIDN/A         25  22  88  S8      N/A
#SISTERS ODOT   N/A         30  N/A N/A CALM    N/A
#SISTERS 3N     N/A         30  32  100 CALM    29.80S
#SUNRIVER       N/A         37  35  92  CALM    29.65R
#SUTTLE LK DOT  N/A         28  28  100 W7      N/A
#WANOGA BUTTE D N/A         30  24  78  N1      N/A

$$

ORZ044-011410-
LOWER COLUMBIA BASIN...OREGON

CITY            SKY/WX      TMP DP  RH  WIND    PRES   REMARKS
HERMISTON       LGT RAIN    48  44  86  SW5     29.74S
#BOARDMAN 3W    N/A         48  47  96  SW5     29.47R
#BOARDMAN 8SW   N/A         48  45  89  SW2     29.75R
#IRRIGON 4NW    N/A         49  46  89  N2      N/A
$$

ORZ507-011410-
NORTHERN FOOTHILLS OF THE BLUES

CITY            SKY/WX      TMP DP  RH  WIND    PRES   REMARKS
PENDLETON AIRPT LGT RAIN    45  43  93  CALM    29.73S

$$

ORZ508-011410-
SOUTHERN FOOTHILLS OF THE BLUES

CITY            SKY/WX      TMP DP  RH  WIND    PRES   REMARKS
LEXINGTON       MOCLDY      46  41  83  CALM    29.75F

$$

ORZ502-503-011410-
BLUE MOUNTAINS

CITY            SKY/WX      TMP DP  RH  WIND    PRES   REMARKS
MEACHAM         LGT RAIN    39  38  96  CALM    29.69F FOG
#BATTLE MTN DOT N/A         35  35  100 N3      N/A
#HEPPNER 15SE   N/A         33  31  92  CALM    29.59F
#LADD CYN SMT   N/A         41  35  79  W15     N/A    WCI 33
#LADD CREEK ODOTN/A         44  37  76  SE1     N/A
#N POWDER DOT   N/A         45  41  86  N15     N/A    WCI 38
$$

ORZ505-011410-
JOHN DAY BASIN

CITY            SKY/WX      TMP DP  RH  WIND    PRES   REMARKS
JOHN DAY        LGT DRIZZLE 40  39  96  W17     29.67S WCI 31
#WINLOCK        N/A         41  40  96  CALM    29.82S
$$

ORZ506-011410-
OCHOCO AND JOHN DAY HIGHLANDS

CITY            SKY/WX      TMP DP  RH  WIND    PRES   REMARKS
#BUCK CREEK DOT N/A         39  39  100 NW14    N/A    WCI 31
#HORSE RIDGE DO N/A         36  35  96  NW8     N/A
#KEYES SMT DOT  N/A         36  36  100 NW6     N/A
$$

ORZ049-011410-
GRANDE RONDE VALLEY

CITY            SKY/WX      TMP DP  RH  WIND    PRES   REMARKS
LA GRANDE       CLOUDY      45  36  70  NW16    29.65F WCI 38
#ELGIN 3N       N/A         44  43  96  CALM    29.42F
#IMBLER SCHOOL  N/A         63  35  35  SW3     29.84S
#LADD CYN DOT   N/A         47  39  74  W12     N/A    WCI 42
$$

ORZ050-011410-
WALLOWA COUNTY

CITY            SKY/WX      TMP DP  RH  WIND    PRES   REMARKS
JOSEPH AIRPORT  LGT RAIN    43  43  100 CALM    29.68F
#JOSEPH 3W      N/A         40  40  100 CALM    29.55F



$$



USA.gov is the U.S. government's official web portal to all federal, state and local government web resources and services.